| time (UTC) | temp F | wind direction | speed MPH | gust MPH | rain 1hr in | rain 24hr in | rain mn in | humidity % | barometer mb |
| 20260510061543 | 49 | 207 | 6.0 | 11.0 | 0.00 | 0.00 | 0.00 | 42 | 1016.5 |
| 20260510061036 | 49 | 184 | 4.0 | 12.0 | 0.00 | 0.00 | 0.00 | 47 | 1016.5 |
| 20260510060534 | 48 | 197 | 7.0 | 13.0 | 0.00 | 0.00 | 0.00 | 45 | 1016.5 |
| 20260510060039 | 48 | 193 | 7.0 | 13.0 | 0.00 | 0.00 | 0.00 | 47 | 1016.7 |
| 20260510055534 | 48 | 169 | 7.0 | 15.0 | 0.00 | 0.00 | 0.00 | 47 | 1016.7 |
| 20260510055032 | 48 | 165 | 6.0 | 15.0 | 0.00 | 0.00 | 0.00 | 48 | 1016.8 |
| 20260510054540 | 47 | 154 | 6.0 | 13.0 | 0.00 | 0.00 | 0.00 | 48 | 1016.8 |
| 20260510054033 | 47 | 158 | 7.0 | 13.0 | 0.00 | 0.00 | 0.00 | 50 | 1016.8 |
| 20260510053533 | 46 | 204 | 6.0 | 11.0 | 0.00 | 0.00 | 0.00 | 50 | 1016.9 |
| 20260510053040 | 45 | 189 | 6.0 | 14.0 | 0.00 | 0.00 | 0.00 | 51 | 1016.9 |
| 20260510052533 | 45 | 212 | 8.0 | 16.0 | 0.00 | 0.00 | 0.00 | 52 | 1017.1 |
| 20260510052034 | 44 | 197 | 10.0 | 16.0 | 0.00 | 0.00 | 0.00 | 51 | 1017.1 |
| 20260510051547 | 44 | 187 | 9.0 | 19.0 | 0.00 | 0.00 | 0.00 | 52 | 1017.2 |
| 20260510051032 | 44 | 181 | 10.0 | 20.0 | 0.00 | 0.00 | 0.00 | 51 | 1017.2 |
| 20260510050533 | 43 | 149 | 10.0 | 20.0 | 0.00 | 0.00 | 0.00 | 51 | 1017.3 |
| 20260510050044 | 43 | 182 | 8.0 | 15.0 | 0.00 | 0.00 | 0.00 | 52 | 1017.3 |
| 20260510045531 | 43 | 195 | 9.0 | 21.0 | 0.00 | 0.00 | 0.00 | 51 | 1017.4 |
| 20260510045033 | 43 | 184 | 9.0 | 21.0 | 0.00 | 0.00 | 0.00 | 52 | 1017.5 |
| 20260510044538 | 42 | 168 | 12.0 | 18.0 | 0.00 | 0.00 | 0.00 | 53 | 1017.5 |
| 20260510044034 | 42 | 166 | 9.0 | 19.0 | 0.00 | 0.00 | 0.00 | 52 | 1017.7 |
| 20260510043533 | 42 | 178 | 10.0 | 19.0 | 0.00 | 0.00 | 0.00 | 52 | 1017.7 |
| 20260510043043 | 41 | 174 | 9.0 | 16.0 | 0.00 | 0.00 | 0.00 | 52 | 1017.8 |
| 20260510042534 | 41 | 174 | 9.0 | 16.0 | 0.00 | 0.00 | 0.00 | 53 | 1017.8 |
| 20260510042033 | 41 | 191 | 8.0 | 15.0 | 0.00 | 0.00 | 0.00 | 53 | 1017.8 |
| 20260510041545 | 41 | 181 | 7.0 | 14.0 | 0.00 | 0.00 | 0.00 | 52 | 1017.9 |
| 20260510041033 | 41 | 206 | 6.0 | 14.0 | 0.00 | 0.00 | 0.00 | 52 | 1017.9 |
| 20260510040533 | 41 | 188 | 6.0 | 12.0 | 0.00 | 0.00 | 0.00 | 52 | 1018.0 |
| 20260510040056 | 40 | 193 | 7.0 | 14.0 | 0.00 | 0.00 | 0.00 | 53 | 1018.0 |
| 20260510035532 | 40 | 203 | 6.0 | 14.0 | 0.00 | 0.00 | 0.00 | 52 | 1018.0 |
| 20260510035034 | 40 | 189 | 7.0 | 13.0 | 0.00 | 0.00 | 0.00 | 53 | 1018.0 |
| 20260510034546 | 40 | 180 | 6.0 | 14.0 | 0.00 | 0.00 | 0.00 | 54 | 1018.1 |
| 20260510034034 | 39 | 174 | 6.0 | 14.0 | 0.00 | 0.00 | 0.00 | 55 | 1018.2 |
| 20260510033533 | 39 | 170 | 7.0 | 14.0 | 0.00 | 0.00 | 0.00 | 55 | 1018.3 |
| 20260510033048 | 39 | 173 | 6.0 | 12.0 | 0.00 | 0.00 | 0.00 | 55 | 1018.4 |
| 20260510032533 | 39 | 148 | 5.0 | 11.0 | 0.00 | 0.00 | 0.00 | 56 | 1018.5 |
| 20260510032034 | 39 | 144 | 5.0 | 10.0 | 0.00 | 0.00 | 0.00 | 56 | 1018.6 |
| 20260510031540 | 39 | 173 | 6.0 | 11.0 | 0.00 | 0.00 | 0.00 | 56 | 1018.6 |
| 20260510031033 | 39 | 177 | 4.0 | 11.0 | 0.00 | 0.00 | 0.00 | 56 | 1018.8 |
| 20260510030534 | 39 | 160 | 5.0 | 10.0 | 0.00 | 0.00 | 0.00 | 57 | 1018.9 |
| 20260510030047 | 38 | 166 | 5.0 | 10.0 | 0.00 | 0.00 | 0.00 | 58 | 1018.8 |
| 20260510025534 | 38 | 188 | 5.0 | 9.0 | 0.00 | 0.00 | 0.00 | 59 | 1018.9 |
| 20260510025033 | 37 | 149 | 3.0 | 9.0 | 0.00 | 0.00 | 0.00 | 60 | 1018.9 |
| 20260510024545 | 37 | 151 | 3.0 | 8.0 | 0.00 | 0.00 | 0.00 | 60 | 1018.9 |
| 20260510024034 | 37 | 180 | 4.0 | 9.0 | 0.00 | 0.00 | 0.00 | 61 | 1019.0 |
| 20260510023532 | 37 | 168 | 4.0 | 9.0 | 0.00 | 0.00 | 0.00 | 62 | 1019.2 |
| 20260510023042 | 36 | 176 | 3.0 | 9.0 | 0.00 | 0.00 | 0.00 | 62 | 1019.2 |
| 20260510022534 | 36 | 144 | 3.0 | 7.0 | 0.00 | 0.00 | 0.00 | 63 | 1019.3 |
| 20260510022035 | 36 | 155 | 3.0 | 7.0 | 0.00 | 0.00 | 0.00 | 64 | 1019.3 |
| 20260510021540 | 36 | 163 | 4.0 | 8.0 | 0.00 | 0.00 | 0.00 | 65 | 1019.4 |
| 20260510021032 | 35 | 169 | 4.0 | 9.0 | 0.00 | 0.00 | 0.00 | 66 | 1019.4 |
| 20260510020533 | 35 | 146 | 4.0 | 9.0 | 0.00 | 0.00 | 0.00 | 66 | 1019.5 |
| 20260510020045 | 34 | 159 | 4.0 | 8.0 | 0.00 | 0.00 | 0.00 | 67 | 1019.6 |
| 20260510015534 | 34 | 164 | 4.0 | 7.0 | 0.00 | 0.00 | 0.00 | 67 | 1019.6 |
| 20260510015033 | 34 | 152 | 3.0 | 6.0 | 0.00 | 0.00 | 0.00 | 66 | 1019.7 |
| 20260510014543 | 35 | 153 | 1.0 | 4.0 | 0.00 | 0.00 | 0.00 | 65 | 1019.7 |
| 20260510014033 | 35 | 137 | 2.0 | 7.0 | 0.00 | 0.00 | 0.00 | 64 | 1019.8 |
| 20260510013532 | 36 | 151 | 2.0 | 7.0 | 0.00 | 0.00 | 0.00 | 63 | 1019.8 |
| 20260510013044 | 37 | 155 | 3.0 | 7.0 | 0.00 | 0.00 | 0.00 | 62 | 1019.9 |
| 20260510012536 | 37 | 179 | 1.0 | 6.0 | 0.00 | 0.00 | 0.00 | 61 | 1019.9 |
| 20260510012035 | 38 | 163 | 2.0 | 7.0 | 0.00 | 0.00 | 0.00 | 61 | 1020.0 |
| 20260510011544 | 38 | 151 | 3.0 | 7.0 | 0.00 | 0.00 | 0.00 | 60 | 1020.0 |
| 20260510011032 | 38 | 155 | 3.0 | 7.0 | 0.00 | 0.00 | 0.00 | 60 | 1020.1 |
| 20260510010532 | 38 | 149 | 3.0 | 7.0 | 0.00 | 0.00 | 0.00 | 60 | 1020.2 |
| 20260510010041 | 38 | 159 | 2.0 | 6.0 | 0.00 | 0.00 | 0.00 | 60 | 1020.2 |
| 20260510005533 | 38 | 132 | 3.0 | 9.0 | 0.00 | 0.00 | 0.00 | 59 | 1020.3 |
| 20260510005033 | 38 | 162 | 3.0 | 9.0 | 0.00 | 0.00 | 0.00 | 59 | 1020.4 |
| 20260510004540 | 38 | 147 | 4.0 | 7.0 | 0.00 | 0.00 | 0.00 | 59 | 1020.5 |
| 20260510004032 | 38 | 157 | 3.0 | 8.0 | 0.00 | 0.00 | 0.00 | 59 | 1020.5 |
| 20260510003534 | 38 | 170 | 4.0 | 8.0 | 0.00 | 0.00 | 0.00 | 59 | 1020.5 |
| 20260510003048 | 38 | 173 | 4.0 | 8.0 | 0.00 | 0.00 | 0.00 | 59 | 1020.5 |
| 20260510002532 | 38 | 175 | 4.0 | 8.0 | 0.00 | 0.00 | 0.00 | 60 | 1020.4 |
| 20260510002033 | 38 | 172 | 4.0 | 8.0 | 0.00 | 0.00 | 0.00 | 60 | 1020.5 |
| 20260510001545 | 38 | 168 | 4.0 | 9.0 | 0.00 | 0.00 | 0.00 | 60 | 1020.4 |
| 20260510001033 | 38 | 162 | 4.0 | 9.0 | 0.00 | 0.00 | 0.00 | 60 | 1020.5 |
| 20260510000533 | 38 | 175 | 4.0 | 9.0 | 0.00 | 0.00 | 0.00 | 60 | 1020.6 |
| 20260510000059 | 38 | 187 | 4.0 | 7.0 | 0.00 | 0.00 | 0.00 | 59 | 1020.5 |
| 20260509235535 | 38 | 179 | 3.0 | 7.0 | 0.00 | 0.00 | 0.00 | 59 | 1020.5 |
| 20260509235033 | 38 | 172 | 4.0 | 7.0 | 0.00 | 0.00 | 0.00 | 59 | 1020.6 |
| 20260509234553 | 38 | 158 | 3.0 | 7.0 | 0.00 | 0.00 | 0.00 | 59 | 1020.6 |
| 20260509234032 | 38 | 153 | 4.0 | 9.0 | 0.00 | 0.00 | 0.00 | 59 | 1020.7 |
| 20260509233535 | 38 | 157 | 4.0 | 9.0 | 0.00 | 0.00 | 0.00 | 59 | 1020.7 |
| 20260509233046 | 38 | 166 | 4.0 | 8.0 | 0.00 | 0.00 | 0.00 | 60 | 1020.8 |
| 20260509232533 | 37 | 156 | 4.0 | 8.0 | 0.00 | 0.00 | 0.00 | 60 | 1020.8 |
| 20260509232033 | 37 | 162 | 4.0 | 7.0 | 0.00 | 0.00 | 0.00 | 60 | 1021.0 |
| 20260509231540 | 37 | 165 | 4.0 | 8.0 | 0.00 | 0.00 | 0.00 | 60 | 1021.1 |
| 20260509231033 | 37 | 174 | 4.0 | 8.0 | 0.00 | 0.00 | 0.00 | 60 | 1021.1 |
| 20260509230537 | 37 | 165 | 4.0 | 9.0 | 0.00 | 0.00 | 0.00 | 60 | 1021.1 |
| 20260509230042 | 37 | 173 | 4.0 | 9.0 | 0.00 | 0.00 | 0.00 | 60 | 1021.2 |
| 20260509225535 | 37 | 168 | 4.0 | 8.0 | 0.00 | 0.00 | 0.00 | 59 | 1021.3 |
| 20260509225032 | 38 | 159 | 4.0 | 8.0 | 0.00 | 0.00 | 0.00 | 59 | 1021.2 |
| 20260509224548 | 38 | 153 | 4.0 | 9.0 | 0.00 | 0.00 | 0.00 | 59 | 1021.3 |
| 20260509224034 | 38 | 170 | 5.0 | 9.0 | 0.00 | 0.00 | 0.00 | 59 | 1021.3 |
| 20260509223533 | 38 | 200 | 4.0 | 9.0 | 0.00 | 0.00 | 0.00 | 58 | 1021.4 |
| 20260509223043 | 39 | 174 | 5.0 | 10.0 | 0.00 | 0.00 | 0.00 | 59 | 1021.5 |
| 20260509222535 | 39 | 187 | 5.0 | 10.0 | 0.00 | 0.00 | 0.00 | 59 | 1021.5 |
| 20260509222036 | 39 | 199 | 6.0 | 10.0 | 0.00 | 0.00 | 0.00 | 58 | 1021.6 |
| 20260509221542 | 39 | 180 | 5.0 | 9.0 | 0.00 | 0.00 | 0.00 | 58 | 1021.7 |
| 20260509221033 | 39 | 186 | 4.0 | 9.0 | 0.00 | 0.00 | 0.00 | 58 | 1021.7 |
| 20260509220535 | 39 | 181 | 5.0 | 9.0 | 0.00 | 0.00 | 0.00 | 59 | 1021.8 |
| 20260509220039 | 39 | 186 | 5.0 | 8.0 | 0.00 | 0.00 | 0.00 | 58 | 1021.9 |
| 20260509215536 | 39 | 170 | 4.0 | 9.0 | 0.00 | 0.00 | 0.00 | 58 | 1021.9 |
| 20260509215035 | 39 | 166 | 5.0 | 9.0 | 0.00 | 0.00 | 0.00 | 58 | 1021.9 |
| 20260509214540 | 39 | 172 | 5.0 | 9.0 | 0.00 | 0.00 | 0.00 | 58 | 1022.1 |
| 20260509214035 | 39 | 162 | 4.0 | 10.0 | 0.00 | 0.00 | 0.00 | 58 | 1022.0 |
| 20260509213534 | 39 | 189 | 4.0 | 10.0 | 0.00 | 0.00 | 0.00 | 59 | 1022.1 |
| 20260509213041 | 39 | 191 | 5.0 | 9.0 | 0.00 | 0.00 | 0.00 | 59 | 1022.2 |
| 20260509212534 | 38 | 196 | 5.0 | 10.0 | 0.00 | 0.00 | 0.00 | 60 | 1022.3 |
| 20260509212034 | 38 | 201 | 6.0 | 10.0 | 0.00 | 0.00 | 0.00 | 61 | 1022.3 |
| 20260509211544 | 37 | 208 | 5.0 | 9.0 | 0.00 | 0.00 | 0.00 | 63 | 1022.3 |
| 20260509211033 | 36 | 207 | 5.0 | 8.0 | 0.00 | 0.00 | 0.00 | 65 | 1022.3 |
| 20260509210533 | 35 | 199 | 5.0 | 8.0 | 0.00 | 0.00 | 0.00 | 67 | 1022.4 |
| 20260509210049 | 34 | 207 | 5.0 | 8.0 | 0.00 | 0.00 | 0.00 | 69 | 1022.3 |
| 20260509205535 | 34 | 199 | 4.0 | 7.0 | 0.00 | 0.00 | 0.00 | 66 | 1022.3 |
| 20260509205030 | 34 | 205 | 3.0 | 6.0 | 0.00 | 0.00 | 0.00 | 65 | 1022.3 |
| 20260509204550 | 34 | 203 | 2.0 | 4.0 | 0.00 | 0.00 | 0.00 | 64 | 1022.3 |
| 20260509204031 | 35 | 216 | 1.0 | 3.0 | 0.00 | 0.00 | 0.00 | 64 | 1022.3 |
| 20260509203533 | 35 | 198 | 1.0 | 3.0 | 0.00 | 0.00 | 0.00 | 63 | 1022.2 |
| 20260509203040 | 35 | 198 | 0.0 | 3.0 | 0.00 | 0.00 | 0.00 | 63 | 1022.3 |
| 20260509202533 | 36 | 0 | 0.0 | 3.0 | 0.00 | 0.00 | 0.00 | 63 | 1022.3 |
| 20260509202035 | 36 | 0 | 0.0 | 3.0 | 0.00 | 0.00 | 0.00 | 61 | 1022.2 |
| 20260509201540 | 36 | 0 | 1.0 | 4.0 | 0.00 | 0.00 | 0.00 | 60 | 1022.3 |
| 20260509201033 | 37 | 163 | 2.0 | 4.0 | 0.00 | 0.00 | 0.00 | 59 | 1022.3 |
| 20260509200532 | 37 | 147 | 1.0 | 4.0 | 0.00 | 0.00 | 0.00 | 59 | 1022.3 |
| 20260509200049 | 38 | 155 | 1.0 | 4.0 | 0.00 | 0.00 | 0.00 | 58 | 1022.3 |
| 20260509195532 | 38 | 159 | 0.0 | 3.0 | 0.00 | 0.00 | 0.00 | 58 | 1022.2 |
| 20260509195035 | 39 | 0 | 0.0 | 3.0 | 0.00 | 0.00 | 0.00 | 57 | 1022.2 |
| 20260509194543 | 39 | 0 | 0.0 | 4.0 | 0.00 | 0.00 | 0.00 | 56 | 1022.2 |
| 20260509194034 | 39 | 0 | 1.0 | 4.0 | 0.00 | 0.00 | 0.00 | 55 | 1022.4 |
| 20260509193533 | 40 | 190 | 2.0 | 5.0 | 0.00 | 0.00 | 0.00 | 54 | 1022.3 |
| 20260509193041 | 40 | 169 | 2.0 | 5.0 | 0.00 | 0.00 | 0.00 | 53 | 1022.2 |
| 20260509192532 | 41 | 168 | 1.0 | 4.0 | 0.00 | 0.00 | 0.00 | 52 | 1022.3 |
| 20260509192033 | 41 | 162 | 1.0 | 4.0 | 0.00 | 0.00 | 0.00 | 52 | 1022.3 |
| 20260509191540 | 42 | 155 | 1.0 | 3.0 | 0.00 | 0.00 | 0.00 | 51 | 1022.4 |
| 20260509191035 | 43 | 195 | 0.0 | 2.0 | 0.00 | 0.00 | 0.00 | 50 | 1022.3 |
| 20260509190532 | 43 | 207 | 1.0 | 3.0 | 0.00 | 0.00 | 0.00 | 50 | 1022.3 |
| 20260509190040 | 44 | 207 | 1.0 | 3.0 | 0.00 | 0.00 | 0.00 | 48 | 1022.4 |
| 20260509185532 | 45 | 207 | 1.0 | 3.0 | 0.00 | 0.00 | 0.00 | 46 | 1022.4 |
| 20260509185032 | 45 | 207 | 1.0 | 3.0 | 0.00 | 0.00 | 0.00 | 46 | 1022.4 |
| 20260509184557 | 46 | 209 | 1.0 | 3.0 | 0.00 | 0.00 | 0.00 | 45 | 1022.4 |
| 20260509184032 | 46 | 230 | 1.0 | 3.0 | 0.00 | 0.00 | 0.00 | 45 | 1022.4 |
| 20260509183532 | 46 | 230 | 1.0 | 4.0 | 0.00 | 0.00 | 0.00 | 49 | 1022.5 |
| 20260509183043 | 46 | 224 | 1.0 | 4.0 | 0.00 | 0.00 | 0.00 | 50 | 1022.5 |
| 20260509182532 | 46 | 230 | 2.0 | 7.0 | 0.00 | 0.00 | 0.00 | 44 | 1022.5 |
| 20260509182032 | 47 | 254 | 3.0 | 7.0 | 0.00 | 0.00 | 0.00 | 44 | 1022.5 |
| 20260509181548 | 47 | 237 | 2.0 | 7.0 | 0.00 | 0.00 | 0.00 | 43 | 1022.3 |
| 20260509181034 | 48 | 240 | 3.0 | 7.0 | 0.00 | 0.00 | 0.00 | 44 | 1022.4 |
| 20260509180533 | 48 | 206 | 3.0 | 8.0 | 0.00 | 0.00 | 0.00 | 43 | 1022.4 |
| 20260509180042 | 48 | 236 | 3.0 | 8.0 | 0.00 | 0.00 | 0.00 | 42 | 1022.4 |
| 20260509175533 | 49 | 266 | 3.0 | 7.0 | 0.00 | 0.00 | 0.00 | 43 | 1022.4 |
| 20260509175034 | 49 | 243 | 3.0 | 7.0 | 0.00 | 0.00 | 0.00 | 45 | 1022.3 |
| 20260509174546 | 49 | 248 | 4.0 | 8.0 | 0.00 | 0.00 | 0.00 | 43 | 1022.4 |
| 20260509174032 | 49 | 272 | 4.0 | 8.0 | 0.00 | 0.00 | 0.00 | 43 | 1022.4 |
| 20260509173532 | 50 | 270 | 5.0 | 11.0 | 0.00 | 0.00 | 0.00 | 43 | 1022.4 |
| 20260509173057 | 50 | 262 | 4.0 | 11.0 | 0.00 | 0.00 | 0.00 | 42 | 1022.4 |
| 20260509172534 | 51 | 255 | 5.0 | 11.0 | 0.00 | 0.00 | 0.00 | 41 | 1022.4 |
| 20260509172033 | 51 | 261 | 7.0 | 11.0 | 0.00 | 0.00 | 0.00 | 41 | 1022.4 |
| 20260509171550 | 51 | 267 | 4.0 | 12.0 | 0.00 | 0.00 | 0.00 | 41 | 1022.4 |
| 20260509171034 | 52 | 266 | 7.0 | 13.0 | 0.00 | 0.00 | 0.00 | 39 | 1022.5 |
| 20260509170533 | 52 | 266 | 8.0 | 13.0 | 0.00 | 0.00 | 0.00 | 39 | 1022.4 |
| 20260509170042 | 53 | 272 | 7.0 | 13.0 | 0.00 | 0.00 | 0.00 | 38 | 1022.4 |
| 20260509165533 | 53 | 249 | 7.0 | 14.0 | 0.00 | 0.00 | 0.00 | 38 | 1022.5 |
| 20260509165032 | 54 | 261 | 8.0 | 16.0 | 0.00 | 0.00 | 0.00 | 38 | 1022.5 |
| 20260509164551 | 54 | 280 | 9.0 | 16.0 | 0.00 | 0.00 | 0.00 | 37 | 1022.5 |
| 20260509164034 | 54 | 275 | 6.0 | 14.0 | 0.00 | 0.00 | 0.00 | 36 | 1022.5 |
| 20260509163534 | 55 | 266 | 9.0 | 15.0 | 0.00 | 0.00 | 0.00 | 36 | 1022.5 |
| 20260509163039 | 55 | 268 | 6.0 | 15.0 | 0.00 | 0.00 | 0.00 | 37 | 1022.5 |
| 20260509162532 | 56 | 270 | 8.0 | 15.0 | 0.00 | 0.00 | 0.00 | 34 | 1022.4 |
| 20260509162032 | 56 | 286 | 7.0 | 11.0 | 0.00 | 0.00 | 0.00 | 35 | 1022.4 |
| 20260509161546 | 56 | 274 | 6.0 | 10.0 | 0.00 | 0.00 | 0.00 | 34 | 1022.4 |
| 20260509161033 | 56 | 275 | 4.0 | 12.0 | 0.00 | 0.00 | 0.00 | 34 | 1022.6 |
| 20260509160531 | 56 | 291 | 6.0 | 12.0 | 0.00 | 0.00 | 0.00 | 34 | 1022.6 |
| 20260509160047 | 55 | 284 | 7.0 | 12.0 | 0.00 | 0.00 | 0.00 | 34 | 1022.7 |
| 20260509155532 | 56 | 278 | 8.0 | 11.0 | 0.00 | 0.00 | 0.00 | 34 | 1022.6 |
| 20260509155032 | 56 | 264 | 7.0 | 11.0 | 0.00 | 0.00 | 0.00 | 33 | 1022.7 |
| 20260509154543 | 56 | 280 | 8.0 | 13.0 | 0.00 | 0.00 | 0.00 | 32 | 1022.8 |
| 20260509154034 | 56 | 270 | 9.0 | 13.0 | 0.00 | 0.00 | 0.00 | 33 | 1022.9 |
| 20260509153533 | 56 | 283 | 7.0 | 14.0 | 0.00 | 0.00 | 0.00 | 32 | 1022.9 |
| 20260509153046 | 57 | 263 | 7.0 | 14.0 | 0.00 | 0.00 | 0.00 | 32 | 1023.0 |
| 20260509152533 | 58 | 269 | 6.0 | 14.0 | 0.00 | 0.00 | 0.00 | 33 | 1023.0 |
| 20260509152037 | 58 | 305 | 6.0 | 11.0 | 0.00 | 0.00 | 0.00 | 32 | 1023.1 |
| 20260509151556 | 58 | 263 | 6.0 | 15.0 | 0.00 | 0.00 | 0.00 | 32 | 1023.1 |
| 20260509151032 | 58 | 232 | 6.0 | 15.0 | 0.00 | 0.00 | 0.00 | 30 | 1023.2 |
| 20260509150531 | 58 | 242 | 8.0 | 13.0 | 0.00 | 0.00 | 0.00 | 31 | 1023.2 |
| 20260509150048 | 58 | 260 | 9.0 | 12.0 | 0.00 | 0.00 | 0.00 | 31 | 1023.2 |
| 20260509145532 | 58 | 258 | 6.0 | 14.0 | 0.00 | 0.00 | 0.00 | 31 | 1023.2 |
| 20260509145034 | 58 | 257 | 9.0 | 14.0 | 0.00 | 0.00 | 0.00 | 31 | 1023.3 |
| 20260509144601 | 58 | 263 | 7.0 | 13.0 | 0.00 | 0.00 | 0.00 | 31 | 1023.4 |
| 20260509144037 | 58 | 255 | 8.0 | 15.0 | 0.00 | 0.00 | 0.00 | 30 | 1023.5 |
| 20260509143531 | 58 | 269 | 10.0 | 15.0 | 0.00 | 0.00 | 0.00 | 31 | 1023.7 |
| 20260509143116 | 58 | 239 | 7.0 | 13.0 | 0.00 | 0.00 | 0.00 | 31 | 1023.6 |
| 20260509142535 | 59 | 252 | 8.0 | 12.0 | 0.00 | 0.00 | 0.00 | 30 | 1023.8 |
| 20260509142034 | 59 | 238 | 7.0 | 11.0 | 0.00 | 0.00 | 0.00 | 30 | 1023.8 |
| 20260509141542 | 59 | 266 | 5.0 | 12.0 | 0.00 | 0.00 | 0.00 | 31 | 1023.8 |
| 20260509141034 | 59 | 281 | 5.0 | 13.0 | 0.00 | 0.00 | 0.00 | 29 | 1024.0 |
| 20260509140532 | 59 | 246 | 5.0 | 13.0 | 0.00 | 0.00 | 0.00 | 31 | 1024.0 |
| 20260509140059 | 58 | 258 | 6.0 | 14.0 | 0.00 | 0.00 | 0.00 | 32 | 1024.1 |
| 20260509135534 | 59 | 269 | 4.0 | 15.0 | 0.00 | 0.00 | 0.00 | 33 | 1024.2 |
| 20260509135035 | 59 | 248 | 9.0 | 15.0 | 0.00 | 0.00 | 0.00 | 29 | 1024.4 |
| 20260509134605 | 59 | 230 | 7.0 | 14.0 | 0.00 | 0.00 | 0.00 | 30 | 1024.3 |
| 20260509134033 | 59 | 241 | 6.0 | 15.0 | 0.00 | 0.00 | 0.00 | 31 | 1024.4 |
| 20260509133531 | 59 | 253 | 9.0 | 15.0 | 0.00 | 0.00 | 0.00 | 31 | 1024.5 |
| 20260509133049 | 59 | 219 | 9.0 | 15.0 | 0.00 | 0.00 | 0.00 | 31 | 1024.5 |
| 20260509132534 | 59 | 263 | 8.0 | 12.0 | 0.00 | 0.00 | 0.00 | 34 | 1024.7 |
| 20260509132030 | 60 | 242 | 5.0 | 14.0 | 0.00 | 0.00 | 0.00 | 29 | 1024.7 |
| 20260509131540 | 59 | 272 | 8.0 | 14.0 | 0.00 | 0.00 | 0.00 | 28 | 1024.6 |
| 20260509131031 | 59 | 253 | 9.0 | 16.0 | 0.00 | 0.00 | 0.00 | 28 | 1024.7 |
| 20260509130534 | 59 | 267 | 6.0 | 16.0 | 0.00 | 0.00 | 0.00 | 30 | 1024.8 |
| 20260509130052 | 59 | 266 | 10.0 | 19.0 | 0.00 | 0.00 | 0.00 | 30 | 1024.9 |
| 20260509125531 | 59 | 240 | 8.0 | 19.0 | 0.00 | 0.00 | 0.00 | 31 | 1025.0 |
| 20260509125031 | 60 | 262 | 8.0 | 13.0 | 0.00 | 0.00 | 0.00 | 28 | 1025.2 |
| 20260509124538 | 59 | 278 | 8.0 | 16.0 | 0.00 | 0.00 | 0.00 | 28 | 1025.3 |
| 20260509124029 | 59 | 263 | 11.0 | 17.0 | 0.00 | 0.00 | 0.00 | 29 | 1025.2 |
| 20260509123529 | 59 | 265 | 9.0 | 18.0 | 0.00 | 0.00 | 0.00 | 31 | 1025.3 |
| 20260509123106 | 59 | 252 | 11.0 | 18.0 | 0.00 | 0.00 | 0.00 | 33 | 1025.4 |
| 20260509122530 | 60 | 232 | 8.0 | 18.0 | 0.00 | 0.00 | 0.00 | 35 | 1025.4 |
| 20260509122029 | 59 | 201 | 6.0 | 18.0 | 0.00 | 0.00 | 0.00 | 29 | 1025.4 |
| 20260509121601 | 59 | 197 | 10.0 | 18.0 | 0.00 | 0.00 | 0.00 | 31 | 1025.4 |
| 20260509121030 | 60 | 246 | 10.0 | 17.0 | 0.00 | 0.00 | 0.00 | 31 | 1025.3 |
| 20260509120534 | 59 | 226 | 7.0 | 15.0 | 0.00 | 0.00 | 0.00 | 29 | 1025.5 |
| 20260509120043 | 60 | 215 | 8.0 | 14.0 | 0.00 | 0.00 | 0.00 | 31 | 1025.5 |
| 20260509115531 | 60 | 261 | 7.0 | 18.0 | 0.00 | 0.00 | 0.00 | 31 | 1025.5 |
| 20260509115029 | 59 | 176 | 9.0 | 18.0 | 0.00 | 0.00 | 0.00 | 28 | 1025.5 |
| 20260509114541 | 60 | 168 | 7.0 | 16.0 | 0.00 | 0.00 | 0.00 | 34 | 1025.5 |
| 20260509114030 | 60 | 220 | 10.0 | 17.0 | 0.00 | 0.00 | 0.00 | 30 | 1025.6 |
| 20260509113530 | 60 | 263 | 6.0 | 17.0 | 0.00 | 0.00 | 0.00 | 32 | 1025.6 |
| 20260509113050 | 59 | 226 | 8.0 | 16.0 | 0.00 | 0.00 | 0.00 | 32 | 1025.5 |
| 20260509112532 | 59 | 189 | 7.0 | 16.0 | 0.00 | 0.00 | 0.00 | 29 | 1025.5 |
| 20260509112032 | 59 | 240 | 11.0 | 17.0 | 0.00 | 0.00 | 0.00 | 31 | 1025.6 |
| 20260509111556 | 59 | 252 | 8.0 | 18.0 | 0.00 | 0.00 | 0.00 | 33 | 1025.6 |
| 20260509111031 | 58 | 230 | 10.0 | 23.0 | 0.00 | 0.00 | 0.00 | 31 | 1025.6 |
| 20260509110530 | 59 | 241 | 11.0 | 23.0 | 0.00 | 0.00 | 0.00 | 38 | 1025.7 |
| 20260509110046 | 59 | 206 | 10.0 | 22.0 | 0.00 | 0.00 | 0.00 | 34 | 1025.7 |
| 20260509105530 | 59 | 181 | 12.0 | 19.0 | 0.00 | 0.00 | 0.00 | 30 | 1025.7 |
| 20260509105031 | 59 | 189 | 5.0 | 17.0 | 0.00 | 0.00 | 0.00 | 34 | 1025.8 |
| 20260509104546 | 58 | 169 | 7.0 | 19.0 | 0.00 | 0.00 | 0.00 | 27 | 1025.8 |
| 20260509104031 | 59 | 270 | 9.0 | 19.0 | 0.00 | 0.00 | 0.00 | 28 | 1026.0 |
| 20260509103530 | 59 | 180 | 9.0 | 16.0 | 0.00 | 0.00 | 0.00 | 28 | 1025.9 |
| 20260509103048 | 59 | 193 | 8.0 | 17.0 | 0.00 | 0.00 | 0.00 | 29 | 1025.8 |
| 20260509102532 | 58 | 212 | 7.0 | 17.0 | 0.00 | 0.00 | 0.00 | 30 | 1025.9 |
| 20260509102031 | 59 | 243 | 10.0 | 21.0 | 0.00 | 0.00 | 0.00 | 31 | 1026.0 |
| 20260509101611 | 59 | 160 | 10.0 | 21.0 | 0.00 | 0.00 | 0.00 | 29 | 1025.9 |
| 20260509101034 | 59 | 180 | 11.0 | 25.0 | 0.00 | 0.00 | 0.00 | 30 | 1026.0 |
| 20260509100538 | 59 | 191 | 6.0 | 28.0 | 0.00 | 0.00 | 0.00 | 33 | 1026.0 |
| 20260509100043 | 58 | 232 | 11.0 | 28.0 | 0.00 | 0.00 | 0.00 | 33 | 1026.1 |
| 20260509095531 | 59 | 251 | 10.0 | 18.0 | 0.00 | 0.00 | 0.00 | 31 | 1026.1 |
| 20260509095034 | 58 | 238 | 11.0 | 18.0 | 0.00 | 0.00 | 0.00 | 30 | 1026.2 |
| 20260509094544 | 58 | 247 | 6.0 | 12.0 | 0.00 | 0.00 | 0.00 | 30 | 1026.2 |
| 20260509094034 | 57 | 238 | 6.0 | 17.0 | 0.00 | 0.00 | 0.00 | 38 | 1026.3 |
| 20260509093532 | 57 | 194 | 8.0 | 17.0 | 0.00 | 0.00 | 0.00 | 33 | 1026.4 |
| 20260509093042 | 58 | 207 | 9.0 | 16.0 | 0.00 | 0.00 | 0.00 | 35 | 1026.4 |
| 20260509092534 | 58 | 254 | 9.0 | 14.0 | 0.00 | 0.00 | 0.00 | 30 | 1026.6 |
| 20260509092036 | 58 | 264 | 7.0 | 15.0 | 0.00 | 0.00 | 0.00 | 32 | 1026.4 |
| 20260509091548 | 57 | 195 | 7.0 | 23.0 | 0.00 | 0.00 | 0.00 | 31 | 1026.6 |
| 20260509091035 | 57 | 225 | 11.0 | 23.0 | 0.00 | 0.00 | 0.00 | 31 | 1026.6 |
| 20260509090535 | 57 | 177 | 6.0 | 16.0 | 0.00 | 0.00 | 0.00 | 34 | 1026.5 |
| 20260509090042 | 57 | 210 | 10.0 | 16.0 | 0.00 | 0.00 | 0.00 | 33 | 1026.6 |
| 20260509085534 | 57 | 215 | 5.0 | 14.0 | 0.00 | 0.00 | 0.00 | 34 | 1026.6 |
| 20260509085034 | 57 | 215 | 8.0 | 13.0 | 0.00 | 0.00 | 0.00 | 30 | 1026.6 |
| 20260509084548 | 57 | 241 | 7.0 | 15.0 | 0.00 | 0.00 | 0.00 | 31 | 1026.6 |
| 20260509084036 | 56 | 238 | 8.0 | 18.0 | 0.00 | 0.00 | 0.00 | 33 | 1026.6 |
| 20260509083534 | 56 | 237 | 10.0 | 18.0 | 0.00 | 0.00 | 0.00 | 33 | 1026.6 |
| 20260509083040 | 56 | 241 | 8.0 | 15.0 | 0.00 | 0.00 | 0.00 | 31 | 1026.6 |
| 20260509082535 | 56 | 268 | 8.0 | 14.0 | 0.00 | 0.00 | 0.00 | 32 | 1026.7 |
| 20260509082035 | 56 | 248 | 9.0 | 15.0 | 0.00 | 0.00 | 0.00 | 40 | 1026.6 |
| 20260509081544 | 56 | 197 | 8.0 | 15.0 | 0.00 | 0.00 | 0.00 | 36 | 1026.6 |
| 20260509081035 | 56 | 213 | 6.0 | 12.0 | 0.00 | 0.00 | 0.00 | 31 | 1026.7 |
| 20260509080535 | 56 | 251 | 6.0 | 14.0 | 0.00 | 0.00 | 0.00 | 35 | 1026.7 |
| 20260509080041 | 56 | 216 | 5.0 | 14.0 | 0.00 | 0.00 | 0.00 | 30 | 1026.7 |
| 20260509075534 | 56 | 244 | 7.0 | 14.0 | 0.00 | 0.00 | 0.00 | 30 | 1026.7 |
| 20260509075035 | 55 | 198 | 8.0 | 13.0 | 0.00 | 0.00 | 0.00 | 36 | 1026.7 |
| 20260509074549 | 56 | 229 | 5.0 | 11.0 | 0.00 | 0.00 | 0.00 | 33 | 1026.7 |
| 20260509074034 | 55 | 270 | 6.0 | 12.0 | 0.00 | 0.00 | 0.00 | 33 | 1026.8 |
| 20260509073535 | 55 | 227 | 7.0 | 13.0 | 0.00 | 0.00 | 0.00 | 36 | 1026.7 |
| 20260509073056 | 55 | 220 | 8.0 | 15.0 | 0.00 | 0.00 | 0.00 | 39 | 1026.7 |
| 20260509072535 | 55 | 218 | 9.0 | 15.0 | 0.00 | 0.00 | 0.00 | 37 | 1026.8 |
| 20260509072032 | 55 | 238 | 5.0 | 12.0 | 0.00 | 0.00 | 0.00 | 37 | 1026.8 |
| 20260509071550 | 55 | 220 | 6.0 | 12.0 | 0.00 | 0.00 | 0.00 | 35 | 1026.8 |
| 20260509071033 | 54 | 188 | 7.0 | 12.0 | 0.00 | 0.00 | 0.00 | 40 | 1026.8 |
| 20260509070532 | 54 | 189 | 9.0 | 12.0 | 0.00 | 0.00 | 0.00 | 38 | 1026.9 |
| 20260509070046 | 54 | 252 | 6.0 | 12.0 | 0.00 | 0.00 | 0.00 | 38 | 1026.9 |
| 20260509065532 | 54 | 226 | 6.0 | 15.0 | 0.00 | 0.00 | 0.00 | 39 | 1026.9 |
| 20260509065034 | 54 | 155 | 6.0 | 15.0 | 0.00 | 0.00 | 0.00 | 44 | 1026.9 |
| 20260509064546 | 53 | 228 | 8.0 | 12.0 | 0.00 | 0.00 | 0.00 | 43 | 1026.9 |
| 20260509064037 | 53 | 228 | 5.0 | 9.0 | 0.00 | 0.00 | 0.00 | 44 | 1027.0 |
| 20260509063533 | 52 | 215 | 5.0 | 8.0 | 0.00 | 0.00 | 0.00 | 45 | 1026.9 |
| 20260509063043 | 52 | 218 | 5.0 | 8.0 | 0.00 | 0.00 | 0.00 | 43 | 1027.0 |
| 20260509062533 | 52 | 150 | 4.0 | 8.0 | 0.00 | 0.00 | 0.00 | 41 | 1027.0 |
| 20260509062033 | 52 | 195 | 2.0 | 7.0 | 0.00 | 0.00 | 0.00 | 45 | 1027.0 |